www.pogodaiklimat.ru

Погода и климат >> Архив погоды >> Германия >> Фюрстенцелль


ПОГОДА в Фюрстенцелле

  • Прогноз погоды в Фюрстенцелле
  • Монитор погоды в Фюрстенцелле

АРХИВ ПОГОДЫ в Фюрстенцелле

Время (UTC), дата Ветер
(напр.,м/с)
 
Видим.   Явления Облачность Т
(С)
Тd
(С)
f
(%)
Тe
(С)
Тes
(С)
Комфортность P
(гПа)
Po
(гПа)
Тmin
(С)
Tmax
(С)
R
(мм)
R24
(мм)
S
(см)
22 11.09 Ю 1-1
{2}
3800 м дымка ясно +13.1 +12.4 96 +13 +13 1027.5 970.9
23 11.09 В 1-1
{2}
2200 м дымка ясно +12.5 +12.4 99 +12 +12 1027.8 971.1
00 12.09 СВ 2 <100 м туман {дымка} 6/6 <50 м
[]
+11.2 +11.2 100 +10 +10 1028.1 971.1
01 12.09 ЮЗ 2 <100 м туман 9/9 <50 м
[]
+10.8 +10.8 100 +9 +9 1029.0 971.9
02 12.09 З 1-2
{2}
5000 м в посл. час туман {дымка} ясно +10.9 +10.7 99 +10 +10 1029.1 972.0
03 12.09 В 1 <100 м туман {дымка} 6/6 <50 м
[]
+8.9 +8.9 100 +8 +8 1029.9 972.3
04 12.09 ЮВ 1 2200 м в посл. час туман {дымка} 9/0
[]
+9.9 +9.9 100 +9 +9 1030.2 972.8
05 12.09 В 1 300 м туман {дымка} 10/10 1440 м
[]
+9.8 +9.5 98 +9 +9 1030.6 973.2
06 12.09 СВ 2 200 м туман {дымка} 10/10 <50 м
[]
+10.3 +10.2 99 +9 +9 1031.4 974.0 +8.6 +16.4
07 12.09 штиль 0 2600 м в посл. час туман {дымка} 10/10 <50 м
[]
+11.6 +11.6 100 +11 +11 1031.6 974.5
08 12.09 В 1 9000 м 10/10 1140 м
[]
+13.4 +12.2 92 +14 +14 1031.7 975.0
09 12.09 ЮЗ 2 10 км в посл. час морось {туман} 10/10 1320 м
[]
+14.5 +11.9 84 +14 +14 1032.0 975.4 0.0
10 12.09 ЮЗ 2 15 км 10/10 1300 м
[]
+16.3 +10.8 70 +16 +16 1031.8 975.6
11 12.09 ЮЗ 1-2
{3}
13 км 10/10 1200 м
[]
+17.4 +11.7 69 +18 +18 1031.6 975.6
12 12.09 З 2 15 км {морось, туман} 10/10 1350 м
[]
+19.1 +12.1 64 +21 +21 комфорт 1030.9 975.3
13 12.09 ЮЗ 3 35 км 9/9 1080 м
[]
+20.7 +11.6 56 +23 +24 комфорт 1030.3 975.0
14 12.09 З 3-4
{6}
17 км 3/3 1230 м
[]
+20.5 +10.3 52 +22 +26 комфорт 1030.0 974.6
15 12.09 З 2 30 км 5/5 1410 м
[]
+20.3 +11.2 56 +23 +24 комфорт 1029.9 974.5
16 12.09 СЗ 1 30 км 9/9 1500 м
[]
+20.4 +12.1 59 +23 +24 комфорт 1029.6 974.3
17 12.09 штиль 0 29 км 10/10 1500 м
[]
+19.1 +12.7 66 +20 +20 1029.9 974.3
18 12.09 Ю 1 16 км 10/10 1500 м
[]
+18.3 +11.9 66 +20 +20 1030.1 974.4 +10.3 +21.8
19 12.09 ЮЗ 1 26 км 9/0
[]
+17.8 +11.5 67 +19 +19 1030.5 974.6
20 12.09 ЮЗ 1-2
{2}
22 км ясно +16.8 +12.2 74 +18 +18 1030.9 974.8
21 12.09 Ю 2-2
{2}
20 км ясно +15.7 +12.2 80 +16 +16 1031.3 975.0
22 12.09 ЮВ 2-2
{3}
16 км ясно +14.8 +12.3 85 +14 +14 1031.6 975.1
23 12.09 СВ 1-2
{2}
11 км 10/10 1500 м
[]
+13.5 +12.3 92 +14 +14 1031.8 975.1
00 13.09 СВ 2 11 км 9/9 1500 м
[]
+12.8 +11.7 93 +12 +12 1032.0 975.1
01 13.09 В 1-2
{2}
14 км 10/10 1500 м
[]
+13.4 +11.9 91 +14 +14 1031.6 974.9
02 13.09 СВ 1 11 км 9/9 1350 м
[]
+13.0 +11.9 93 +13 +13 1031.6 974.8
03 13.09 СВ 1 9000 м 9/9 1300 м
[]
+12.2 +11.5 95 +12 +12 1031.9 974.9
04 13.09 Ю 1 13 км 9/9 1300 м
[]
+13.1 +11.8 92 +13 +13 1031.7 974.9
05 13.09 СВ 1-1
{2}
6000 м дымка 3/3 1230 м
[]
+11.9 +11.2 95 +12 +12 1032.1 975.0
06 13.09 В 1 9000 м ясно +13.4 +12.0 91 +14 +14 1032.0 975.2 +11.6 +18.2
07 13.09 СВ 1-1
{1}
11 км ясно +14.9 +12.8 87 +15 +18 1032.0 975.5
08 13.09 Ю 1-2
{2}
15 км 1/0
[]
+16.8 +13.1 79 +18 +23 1031.6 975.5
09 13.09 ЮЗ 2 10 км ясно +18.5 +13.8 74 +20 +27 1031.3 975.6
10 13.09 СЗ 3-5
{5}
14 км ясно +20.2 +13.9 67 +23 +31 комфорт 1030.8 975.4
11 13.09 З 4-7
{7}
16 км 1/1 1500 м
[]
+21.3 +14.2 64 +24 +30 комфорт 1030.6 975.4
12 13.09 СЗ 2 16 км 9/9 870 м
[]
+20.8 +14.5 67 +24 +25 комфорт 1030.6 975.3
13 13.09 СЗ 4-6
{7}
12 км 4/4 1380 м
[]
+21.7 +14.5 64 +25 +28 комфорт 1030.3 975.2
14 13.09 СЗ 4-6
{7}
12 км 4/4 1080 м
[]
+22.1 +14.2 61 +25 +28 комфорт 1029.9 974.9
15 13.09 СЗ 3 30 км 6/6 1350 м
[]
+21.0 +14.0 64 +24 +25 комфорт 1029.8 974.6
16 13.09 С 3-4
{5}
40 км 10/10 1380 м
[]
+21.4 +14.2 64 +24 +24 комфорт 1029.6 974.5
17 13.09 С 2 45 км 10/10 1500 м
[]
+19.8 +14.0 69 +22 +22 комфорт 1029.8 974.4
18 13.09 СЗ 2 35 км 10/10 1000 м
[]
+19.6 +13.8 69 +22 +22 комфорт 1030.1 974.6 +13.4 +22.3
19 13.09 СЗ 3-3
{3}
40 км 10/10 1500 м
[]
+19.5 +13.6 69 +21 +21 комфорт 1030.2 974.7
20 13.09 С 3-3
{3}
40 км 10/10 1500 м
[]
+18.8 +13.8 73 +20 +20 1030.5 974.9
21 13.09 С 2 24 км 10/10 1500 м
[]
+18.3 +14.4 78 +19 +19 1030.7 975.0
22 13.09 ЮЗ 1-2
{2}
27 км 10/10 1500 м
[]
+17.7 +14.4 81 +19 +19 1030.9 975.1
23 13.09 С 1-1
{2}
23 км 9/9 1500 м
[]
+17.5 +14.5 83 +19 +19 1030.6 974.7
00 14.09 С 2 13 км 10/10 1500 м
[]
+16.9 +14.3 85 +17 +17 1030.7 974.7
01 14.09 СВ 1-1
{2}
27 км 8/8 1500 м
[]
+16.7 +14.0 84 +18 +18 1030.5 974.5
02 14.09 СВ 3 12 км 9/9 1320 м
[]
+15.2 +14.3 94 +14 +14 1030.7 974.4
03 14.09 СВ 2 8000 м 8/8 1320 м
[]
+14.8 +14.1 96 +14 +14 1030.7 974.3
04 14.09 СВ 2 10 км 10/10 1300 м
[]
+15.1 +14.4 96 +15 +15 1030.7 974.4
05 14.09 В 2 9000 м 10/10 1020 м
[]
+14.9 +14.4 97 +15 +15 1031.0 974.6
06 14.09 СВ 3 13 км 10/10 1000 м
[]
+15.3 +14.2 93 +15 +15 1031.1 974.8 +14.8 +19.8
07 14.09 СВ 3 21 км 10/10 1050 м
[]
+16.5 +13.8 84 +16 +16 1031.1 975.0
08 14.09 СВ 4 29 км 10/10 930 м
[]
+17.4 +12.8 74 +17 +17 1031.3 975.3
09 14.09 В 4 27 км 10/10 1080 м
[]
+18.8 +13.3 70 +20 +20 1031.0 975.3
10 14.09 В 4 23 км 10/10 800 м
[]
+19.4 +12.7 65 +21 +21 комфорт 1030.6 975.0
11 14.09 В 3 19 км 9/9 840 м
[]
+19.8 +12.6 63 +22 +23 комфорт 1029.8 974.4
12 14.09 В 3 18 км 9/9 870 м
[]
+21.2 +13.8 63 +24 +25 комфорт 1029.3 974.2
13 14.09 В 3 15 км 8/8 900 м
[]
+21.1 +12.8 59 +23 +25 комфорт 1028.9 973.7
14 14.09 В 2 30 км 9/9 1470 м
[]
+20.4 +13.5 65 +23 +24 комфорт 1028.4 973.2
15 14.09 СВ 1 35 км 5/0
[]
+21.4 +13.0 59 +24 +27 комфорт 1027.7 972.7
16 14.09 В 2 30 км 5/5 1080 м
[]
+20.0 +13.1 64 +22 +23 комфорт 1027.5 972.2
17 14.09 В 2 35 км 9/9 1140 м
[]
+19.1 +13.3 69 +21 +21 комфорт 1027.8 972.4
18 14.09 В 2 30 км ясно +16.9 +13.1 78 +17 +17 1028.5 972.6 +15.3 +21.8
19 14.09 В 2-4
{4}
30 км 9/9 900 м
[]
+16.9 +12.8 77 +17 +17 1028.6 972.7
20 14.09 ЮВ 4 30 км 8/0
[]
+16.8 +12.2 74 +16 +16 1028.7 972.8
21 14.09 СВ 2 25 км 4/0
[]
+14.5 +12.1 86 +14 +14 1029.4 973.0
22 14.09 В 2 24 км 10/0
[]
+13.9 +11.7 87 +13 +13 1029.2 972.7
23 14.09 В 2 22 км 9/9 1350 м
[]
+13.4 +11.5 88 +13 +13 1029.1 972.5
00 15.09 ЮВ 3 26 км 10/0
[]
+14.4 +11.2 81 +13 +13 1028.2 971.8
01 15.09 СВ 2-2
{3}
17 км 3/0
[]
+12.5 +11.0 91 +12 +12 1028.1 971.4
02 15.09 СВ 2-2
{2}
17 км ясно +11.9 +10.9 94 +11 +11 1027.6 970.8
03 15.09 СВ 2-2
{3}
8000 м ясно +11.2 +10.9 98 +10 +10 1027.7 970.7
04 15.09 СВ 2-2
{3}
4500 м дымка ясно +10.9 +10.7 99 +9 +9 1027.4 970.4
05 15.09 В 2-2
{3}
12 км ясно +10.6 +10.2 97 +9 +9 1027.3 970.2
06 15.09 СВ 1 10 км ясно +11.9 +10.6 92 +12 +12 1027.0 970.2 +10.6 +17.3
07 15.09 Ю 1-2
{2}
18 км ясно +14.4 +11.1 81 +15 +18 1026.4 970.1
08 15.09 ЮВ 2-3
{4}
24 км ясно +16.5 +11.7 73 +17 +22 1026.0 970.1
09 15.09 ЮВ 2 29 км ясно +18.3 +12.4 68 +19 +27 1025.5 970.0
10 15.09 ЮВ 2-3
{4}
27 км ясно +19.1 +11.6 62 +21 +30 комфорт 1024.9 969.6
11 15.09 ЮЗ 2-3
{3}
27 км 3/0
[]
+21.2 +11.7 55 +23 +32 комфорт 1023.9 969.0
12 15.09 Ю 2-4
{4}
19 км ясно +21.8 +12.4 55 +24 +34 комфорт 1023.2 968.5
13 15.09 З 2-4
{5}
23 км ясно +22.6 +12.4 52 +25 +33 комфорт 1022.3 967.8
14 15.09 Ю 2-3
{4}
29 км ясно +23.3 +13.9 55 +27 +32 душно 1021.4 967.1
15 15.09 З 1-2
{5}
45 км ясно +23.4 +13.9 55 +27 +30 душно 1020.8 966.5
16 15.09 Ю 1-2
{3}
29 км ясно +22.9 +13.6 56 +26 +27 жарко 1020.5 966.1
17 15.09 ЮВ 2-2
{3}
30 км ясно +21.5 +14.6 65 +25 +25 комфорт 1020.2 965.6
18 15.09 Ю 1 30 км 1/0
[]
+19.8 +14.6 72 +23 +23 комфорт 1020.7 965.8 +11.9 +24.1
19 15.09 Ю 1-2
{2}
28 км 1/0
[]
+19.4 +14.6 74 +22 +22 комфорт 1020.8 965.8
20 15.09 ЮЗ 1-2
{2}
19 км 1/0
[]
+18.9 +14.5 76 +21 +21 комфорт 1021.0 965.9
21 15.09 СВ 1 17 км 6/0
[]
+16.6 +14.4 87 +17 +17 1021.2 965.7
22 15.09 В 1-2
{2}
14 км н/о +15.6 +13.9 90 +16 +16 1021.5 965.8
23 15.09 СВ 1-2
{2}
8000 м 10/0
[]
+14.9 +13.9 94 +15 +15 1021.7 965.8
00 16.09 СВ 2 4500 м дымка 10/0
[]
+14.1 +13.1 94 +14 +14 1021.4 965.4
01 16.09 СВ 2 4000 м дымка 9/9 1470 м
[]
+13.4 +13.0 97 +13 +13 1021.5 965.3
02 16.09 В 1 6000 м дымка 9/9 1440 м
[]
+14.1 +13.0 93 +14 +14 1020.9 964.9
03 16.09 С 2 1800 м дымка 9/9 1200 м
[]
+13.0 +12.6 97 +12 +12 1021.0 964.8
04 16.09 СВ 1-1
{2}
7000 м в посл. час туман {дымка} 3/3 1500 м
[]
+12.6 +11.9 95 +13 +13 1020.9 964.6
05 16.09 ЮЗ 1-2
{2}
3700 м дымка 1/1 1500 м
[]
+13.3 +13.0 98 +13 +13 1020.5 964.4
06 16.09 СВ 1 2300 м дымка {туман} ясно +12.9 +12.0 94 +13 +14 1021.0 964.7 +12.4 +20.1
07 16.09 СВ 1-2
{2}
5000 м дымка ясно +14.5 +13.0 91 +15 +18 1020.9 965.0
08 16.09 ЮВ 1 11 км 9/0
[]
+16.5 +13.5 82 +17 +20 1020.5 965.0
09 16.09 З 1 14 км 10/0
[]
+18.6 +13.9 74 +20 +25 1020.3 965.2
10 16.09 ЮЗ 2 19 км 10/0
[]
+21.0 +11.0 53 +24 +28 комфорт 1019.3 964.6
11 16.09 ЮЗ 2 26 км 10/0
[]
+22.1 +11.8 52 +24 +29 комфорт 1018.6 964.2
12 16.09 З 3 35 км 10/0
[]
+21.8 +12.5 55 +24 +28 комфорт 1017.8 963.4
13 16.09 СЗ 2 35 км 10/0
[]
+22.7 +13.0 54 +26 +29 жарко 1017.1 962.9
14 16.09 СЗ 2 27 км 10/0
[]
+22.9 +14.1 58 +26 +29 жарко 1016.5 962.4
15 16.09 СЗ 2 30 км 10/0
[]
+22.5 +13.9 58 +26 +27 жарко 1016.1 961.9
16 16.09 С 2 30 км 10/0
[]
+21.1 +15.3 69 +24 +24 комфорт 1016.1 961.7
17 16.09 С 2 30 км 10/10 1500 м
[]
+20.2 +14.5 70 +23 +23 комфорт 1016.0 961.4
18 16.09 С 2 35 км 10/0
[]
+19.7 +13.2 66 +22 +22 комфорт 1016.0 961.3 +12.9 +23.7
19 16.09 СЗ 2-3
{4}
35 км 10/0
[]
+19.9 +12.9 64 +22 +22 комфорт 1016.5 961.8
20 16.09 СЗ 3-4
{4}
35 км 9/0
[]
+19.3 +13.2 68 +21 +21 комфорт 1016.5 961.7
21 16.09 СЗ 4 25 км 10/0
[]
+18.2 +13.6 75 +18 +18 1016.7 961.7
22 16.09 СЗ 2 25 км 10/0
[]
+18.0 +12.1 68 +19 +19 1016.4 961.3
23 16.09 З 2-3
{3}
29 км 10/0
[]
+17.6 +12.1 70 +18 +18 1016.4 961.3
00 17.09 З 3 40 км 10/0
[]
+17.8 +10.4 62 +18 +18 1016.2 961.1
01 17.09 З 4 45 км 10/0
[]
+17.4 +10.3 63 +17 +17 1016.2 961.0
02 17.09 З 4 45 км 10/10 1500 м
[]
+17.0 +9.9 63 +17 +17 1016.4 961.1
03 17.09 З 4 55 км в посл. час дождь 10/10 1500 м
[]
+16.4 +10.4 68 +16 +16 1016.5 961.1 0.0
04 17.09 З 4 30 км в посл. час дождь {морось} 10/10 1500 м
[]
+16.1 +10.7 70 +15 +15 1016.8 961.3
05 17.09 З 4 29 км слаб. дождь {морось} 9/0 2000 м
[]
+15.0 +11.4 79 +14 +14 1017.2 961.5
06 17.09 З 3 25 км в посл. час дождь {морось} 10/0 2000 м
[]
+14.7 +11.8 83 +14 +14 1017.4 961.7 +14.6 +20.1 0.0
07 17.09 З 3 23 км 10/10 1350 м
[]
+15.0 +12.0 82 +14 +14 1017.4 961.7
08 17.09 З 3 19 км в посл. час дождь {морось} 10/10 1500 м
[]
+15.3 +12.1 81 +15 +15 1017.4 961.8
09 17.09 З 3 11 км слаб. морось с дождем 10/10 500 м
[]
+15.7 +12.8 83 +15 +15 1017.5 962.0 0.0
10 17.09 З 5 12 км в посл. час дождь {морось} 10/10 400 м
[]
+15.8 +13.0 83 +15 +15 1017.6 962.1
11 17.09 З 5 24 км 9/9 270 м
[]
+15.3 +13.0 86 +14 +14 1017.8 962.2
12 17.09 З 5 35 км {дождь, морось} 10/10 400 м
[]
+15.5 +12.7 83 +14 +14 1017.1 961.6 0.1
13 17.09 СЗ 4 40 км 10/10 450 м
[]
+15.7 +12.5 81 +15 +15 1017.1 961.6
14 17.09 З 5 50 км 9/9 570 м
[]
+15.9 +11.9 77 +15 +15 1016.9 961.4
15 17.09 З 7 22 км 4/4 660 м
[]
+17.0 +11.6 70 +16 +16 1016.2 961.0
16 17.09 З 7 22 км 9/9 1170 м
[]
+16.7 +10.7 68 +15 +15 1016.1 960.8
17 17.09 З 6 70 км 9/0
[]
+15.7 +10.5 71 +14 +14 1016.4 960.9
18 17.09 З 6 65 км 9/0
[]
+14.7 +10.1 74 +13 +13 1017.2 961.5 +14.6 +17.3
19 17.09 З 5-7
{8}
65 км 4/0
[]
+14.1 +9.5 74 +12 +12 1018.1 962.2
20 17.09 З 4-7
{7}
55 км 1/0
[]
+13.7 +9.7 77 +12 +12 1018.8 962.8
21 17.09 З 5-8
{9}
40 км ясно +13.0 +8.9 76 +11 +11 1019.5 963.3
22 17.09 З 4-6
{7}
35 км ясно +12.3 +7.9 74 +10 +10 1019.8 963.4
23 17.09 З 3-6
{6}
30 км ясно +11.1 +7.3 77 +9 +9 1020.7 964.0
00 18.09 З 4 28 км ясно +10.3 +6.8 79 +8 +8 1021.4 964.5
01 18.09 З 4-6
{6}
26 км ясно +9.7 +6.4 80 +7 +7 1021.7 964.7
02 18.09 СЗ 4-6
{6}
30 км ясно +8.9 +5.8 81 +6 +6 1022.5 965.3
03 18.09 СЗ 5-7
{8}
50 км ясно +9.0 +3.9 70 +6 +6 1022.9 965.7
04 18.09 СЗ 4-6
{7}
55 км 1/0
[]
+8.3 +3.3 71 +5 +5 1023.6 966.2
05 18.09 С 3-4
{6}
55 км ясно +7.7 +2.8 71 +5 +5 1024.3 966.7
06 18.09 З 2 14 км ясно +7.5 +4.2 80 +5 +6 1025.0 967.3 +7.0 +14.7
07 18.09 СЗ 2-4
{4}
19 км ясно +9.4 +3.7 68 +8 +10 1025.0 967.7
08 18.09 З 2-3
{4}
11 км ясно +10.3 +3.8 64 +9 +14 1025.2 968.1
09 18.09 З 2 40 км ясно +11.2 +2.6 55 +10 +17 1025.1 968.1
10 18.09 З 3-5
{5}
29 км ясно +12.1 +2.1 50 +11 +18 1024.8 968.0
11 18.09 З 3-6
{6}
23 км ясно +13.8 +2.5 46 +13 +21 1024.1 967.7
12 18.09 З 3 35 км 5/0
[]
+14.9 +1.4 40 +14 +20 1023.6 967.4
13 18.09 СЗ 3-5
{7}
12 км ясно +15.1 -0.5 34 +15 +21 1023.0 966.9
14 18.09 СЗ 2 19 км 8/0
[]
+15.5 +0.2 35 +16 +19 1022.7 966.7
15 18.09 З 3 18 км 8/0
[]
+15.6 +0.5 36 +15 +17 1022.3 966.3
16 18.09 З 3-5
{5}
20 км 3/0
[]
+15.3 -0.1 35 +15 +15 1022.1 966.1
18 18.09 З 3 11 км ясно +11.9 +3.0 54 +11 +11 1023.5 966.8 +7.5 +16.0
19 18.09 СЗ 3-4
{5}
35 км ясно +10.4 +3.9 64 +9 +9 1024.6 967.5
20 18.09 С 3-4
{4}
60 км ясно +10.1 +3.1 62 +8 +8 1025.0 967.8
21 18.09 С 3-4
{5}
65 км ясно +9.2 +3.1 66 +7 +7 1025.2 967.9

 

Местоположение метеостанции Фюрстенцелль (Германия): широта 48.55 долгота 13.35 высота над уровнем моря 480 м.

В архиве по умолчанию представлена погода в Фюрстенцелле за последнюю неделю. Архивные данные за месяц целиком и за предыдущие месяцы, начиная с января 2011 года, Вы можете получить, выбрав интересующий диапазон дат из раскрывающегося списка и нажав кнопку "Ввод!".


*Определитесь, кто Вы:
робот инопланетянин человек

Внимание! Время в таблицах - всемирное. Для получения местного времени необходимо прибавить поправку, которая равна 1 ч.

Смотрите также архив погоды в соседних городах и на ближайших метеорологических станциях:

Погода в Шердинге (Австрия) (11 км)
Погода в Рид-им-Иннкрайсе (Австрия) (38 км)
Погода в Рансхофене (Австрия) (44 км)
Погода в Рорбахе (Австрия) (48 км)
Погода в Цвизеле (Германия) (54 км)
Погода в Вольфсегг-ам-Хаусрукке (Австрия) (55 км)
Погода в Чуранове (Чехия) (61 км)
Погода в Готфридинге (Германия) (62 км)
Погода в Франкенмаркте (Австрия) (63 км)
Погода в Штраубинге (Германия) (65 км)

Пояснения к столбцам:

Ветер - указаны скорость ветра в м/с - средняя за 10 мин, порывы в срок и между сроками (в фигурных скобках) и направление, откуда дует ветер: С - северный, СВ - северо-восточный, В - восточный, ЮВ - юго-восточный, Ю - южный, ЮЗ - юго-западный, З - западный, СЗ - северо-западный.
Видимость - горизонтальная дальность видимости в метрах или километрах. При видимости от 1 до 10 км при отсутствии осадков обычно наблюдается дымка, при ухудшении видимости до 1 км и менее - туман. В сухую погоду видимость может ухудшаться дымом, пылью или мглою.
Явления - указаны атмосферные явления, наблюдавшиеся в срок или в последний час перед сроком; фигурными скобками обозначены явления, наблюдавшиеся между сроками (за 1-3 часа до срока); квадратными скобками обозначены град или гололедные отложения с указанием их диаметра в мм.
Облачность - указаны через наклонную черту общая и нижняя облачность в баллах и высота нижней границы облаков в метрах; квадратными скобками обозначены формы облаков: Ci - перистые, Cs - перисто-слоистые, Cc - перисто-кучевые, Ac - высококучевые, As - высокослоистые, Sc - слоисто-кучевые, Ns - слоисто-дождевые, Cu - кучевые, Cb - кучево-дождевые. Подробнее классификацию облаков см. в Атласе облаков (PDF).
T - Температура воздуха - температура, измеренная на высоте 2 м над землей.
Td - Температура точки росы - температура, при понижении до которой содержащийся в воздухе водяной пар достигнет насыщения.
f - Относительная влажность воздуха - влажноcть воздуха, измеренная на высоте 2 м над землей.
Te - Эффективная температура - температура, которую ощущает одетый по сезону человек в тени. Характеристика душности погоды. При расчете учитывается влияние влажности воздуха и скорости ветра на теплоощущения человека.
Tes - Эффективная температура на солнце - температура, которую ощущает человек, с поправкой на солнечный нагрев. Характеристика знойности погоды. Зависит от высоты солнца над горизонтом, облачности и скорости ветра. Ночью, в пасмурную погоду, а также при ветре 12 м/с и более поправка равна нулю.
P - Атмосферное давление - приведенное к уровню моря атмосферное давление.
Po - Атмосферное давление - измеренное на уровне метеостанции атмосферное давление.
Tmin - Минимальная температура - минимум температуры воздуха на высоте 2 м над землей.
Tmax - Максимальная температура - максимум температуры воздуха на высоте 2 м над землей.
R - Количество осадков - Количество выпавших осадков за период времени, мм. При наведении курсора мыши на число - период времени, за который выпало указанное количество осадков.
R24 - Количество осадков - Количество выпавших осадков за 24 часа, мм.
S - Снежный покров - Высота снежного покрова, см. При наведении курсора мыши на число - состояние снежного покрова и степень покрытия местности в баллах.